Observations

BIA Manual Entry


Date Temp Humidity Rainfall Dew Point Wind Direction Wind Speed Wind Pressure Condition Visibility
2025-04-08 14:58:07 28 85 25 260 17.1 1010 Shower Day 09 KM
2025-04-08 13:58:09 29 84 26 290 15.2 1011 Shower Day 09 KM
2025-04-08 13:02:22 31 73 0.01 25 290 14 1011 Shower Day 10 km
2025-04-08 12:02:07 32 71 0.0 26 290 6 1013 Distant showers 15 km
2025-04-08 11:03:21 31 68 0.0 24 210 6 1013 Cloudy 20 km
2025-04-08 10:03:02 30 78 0.0 25 210 10 1014 Cloudy 20 km
2025-04-08 09:02:52 28 82 0.0 25 190 8 1013 Cloudy 15 km
2025-04-08 08:00:41 27 88 0.00 25 170 7.6 1013 Cloudy 15 KM
2025-04-08 06:59:57 26 92 0.00 25 190 5.7 1012 Cloudy 15 KM
2025-04-08 06:01:12 26 92 0.00 25 160 1.9 1011 Cloudy 10 KM
2025-04-08 04:59:43 26 92 0.00 25 190 5.7 1010 Cloudy 10 KM
2025-04-08 02:58:53 27 89 0.00 25 160 3.8 1010 Cloudy 10 KM
2025-04-08 02:02:23 27 88 25 170 5.7 1011 Showers 10KM
2025-04-08 01:01:10 27 88 24 140 3.8 1012 Showers 10KM
2025-04-08 00:02:40 27 89 25 140 3.8 1012 Partly Cloudy (Night) 10KM
2025-04-07 23:02:00 27 87 25 170 3.8 1012 Partly Cloudy (Night) 10KM
2025-04-07 22:02:24 27 85 24 100 3.8 1012 Partly Cloudy (Night) 10KM
2025-04-07 21:29:10 27 84 25 080 3.8 1012 Showers 10KM
2025-04-07 20:58:27 28 86 0 25 050 7.6 1011 Showers 10 KM
2025-04-07 19:59:01 28 84 0 26 020 7.6 1011 Partly Cloudy (Night) 10 KM
2025-04-07 18:59:06 29 84 0 26 010 11.4 1010 Partly Cloudy (Night) 10 KM
2025-04-07 17:58:25 29 80 0 25 020 7.6 1010 Cloudy 10 KM
2025-04-07 17:02:57 29 79 0 25 340 9.5 1009 Cloudy 10 KM
2025-04-07 17:02:26 29 79 0 25 340 9.5 1009 Thunderstorm
2025-04-07 16:00:02 29 77 0.0 25 330 7.0 1008 Thunderstorm 10 KM